Location: Bear Creek Field
(37.9339°N, 107.8073°W)
Time: 15:09:35
(UTC+00:00)

Daily predictions for brighter satellites

Satellite Brightness Start Highest point End
(mag) Time Altitude Azimuth Time Altitude Azimuth Time Altitude Azimuth
SJ-12 4.2 12:01:32 10° NNE 12:05:39 66° E 12:09:45 10° S
SJ 16-02 2.2 12:02:01 10° S 12:06:15 50° ESE 12:10:29 10° NNE
Cosmos 1354 Rocket 3.9 12:08:21 65° W 12:08:43 68° WNW 12:14:01 10° NNE
H-2A R/B 3.5 12:13:52 40° S 12:13:52 40° S 12:16:23 10° S
DELTA 2 R/B (1) 3.5 12:12:08 59° WNW 12:13:07 74° N 12:18:40 10° E
Meteor 1-31 Rocket 2.8 12:20:09 10° NNE 12:24:05 78° ESE 12:27:59 10° S
Meteor 2-6 Rocket 4.0 12:21:15 26° NNW 12:24:18 68° W 12:29:40 10° S
Cosmos 1833 4.1 12:22:38 34° NW 12:25:11 70° WSW 12:30:53 10° SSE
SL-27 R/B 2.8 12:27:43 38° N 12:28:52 63° ENE 12:32:19 10° SSE
SL-4 R/B 2.2 12:28:17 34° SSW 12:29:30 56° SE 12:33:03 10° ENE
Cosmos 1500 Rocket 4.3 12:25:15 10° S 12:29:35 54° E 12:33:57 10° NNE
Cosmos 2279 Rocket 3.9 12:24:56 10° NNW 12:31:01 62° W 12:37:07 10° S
Cosmos 2369 Rocket 4.1 12:35:27 13° NNW 12:35:27 13° NNW 12:36:18 10° N
SKYMED 2 3.5 12:28:45 10° SSE 12:33:05 89° WSW 12:36:30 16° NNW
Meteor 2-15 4.3 12:28:48 10° N 12:34:53 88° W 12:40:56 10° S
Nadezhda 4 Rocket 4.0 12:29:51 10° S 12:36:00 85° E 12:42:17 10° N
Cosmos 1151 Rocket 4.0 12:37:31 28° WSW 12:37:31 28° WSW 12:40:16 10° SSW
CZ-2C R/B 2.6 12:35:04 10° S 12:40:32 75° WSW 12:45:55 10° NNW
H-2A R/B (2) 4.2 12:36:56 10° SW 12:41:23 38° SSE 13:00:48 10° E
ADEOS 3.8 12:36:39 10° NNE 12:41:53 73° ESE 12:47:05 10° S
H-2A R/B 4.3 12:38:57 10° ESE 12:42:22 23° ENE 12:45:51 10° NNE
MOS 1-B Rocket 4.1 12:37:31 10° S 12:43:35 50° W 12:48:40 12° NNW
Cosmos 783 Rocket 4.4 12:41:50 18° NNW 12:45:41 68° WSW 12:50:51 10° S
BREEZE-M DEB 2.9 12:44:32 34° WSW 12:45:48 76° NNW 12:52:53 10° NE
Meteor 2-19 Rocket 4.3 12:40:20 10° SSW 12:46:21 71° W 12:52:24 10° N
Cosmos 1777 Rocket 4.1 12:46:29 10° SW 12:51:31 50° WNW 12:56:37 10° N
Cosmos 773 Rocket 4.0 12:50:23 14° NNW 12:54:46 62° WSW 12:59:50 10° S
Cosmos 1092 Rocket 4.3 12:50:01 10° S 12:56:12 71° E 13:02:31 10° NNE
BREEZE-M DEB (TANK) 4.4 12:47:51 17° WNW 12:59:15 46° WSW 13:04:09 10° SSE
Meteor PRIRODA 3.8 12:55:57 10° NNE 12:59:34 71° ESE 13:03:11 10° S
NOSS 2 (A) 4.2 12:59:25 29° NNW 13:00:29 66° NE 13:02:50 10° SE
Meteor 1-10 Rocket 4.5 12:55:29 10° NNW 13:00:42 44° W 13:05:57 10° SSW
IRAS Rocket 4.5 12:58:15 10° SSE 13:03:42 71° ENE 13:09:10 10° N
Cosmos 158 Rocket 4.3 13:00:10 10° NNW 13:05:21 70° ENE 13:10:38 10° SSE
USA 32 4.2 13:03:04 10° N 13:08:20 76° E 13:13:34 10° S
Cosmos 2227 Rocket 4.3 13:04:39 10° N 13:09:00 22° NE 13:13:19 10° ESE
CZ-2C R/B 3.0 13:04:32 10° NNE 13:09:34 88° WNW 13:14:50 10° SSW
Envisat 3.8 13:07:49 10° NNW 13:12:03 27° WNW 13:16:16 10° SW
Lacrosse 5 2.6 13:10:18 10° SSW 13:15:17 58° SE 13:20:17 10° NE
Cosmos 1515 3.6 13:12:08 10° N 13:15:57 86° W 13:19:45 10° S
Centaur D-1A AC-35 4.5 13:15:16 10° SW 13:17:52 18° S 13:20:50 10° SE
FAST Rocket 4.5 13:15:57 10° SSW 13:18:23 37° WNW 13:21:18 10° N
SL-8 R/B 4.4 13:16:15 16° WNW 13:19:40 38° SW 13:24:04 10° SSE
COSMOS 2487 2.2 13:16:49 10° NNW 13:20:09 72° WSW 13:23:28 10° S
COSMO-SKYMED 1 3.7 13:17:44 10° SSW 13:21:16 24° W 13:24:50 10° NW
Meteor 1-20 Rocket 4.2 13:15:46 10° SSW 13:21:18 66° W 13:26:58 10° N
FALCON 9 R/B 4.2 13:03:47 14° W 13:23:14 55° SSW 13:29:29 10° SE
SMAP 3.4 13:20:25 10° NNE 13:25:04 70° ESE 13:29:41 10° S
Landsat 5 4.5 13:21:54 10° SSW 13:25:52 31° W 13:29:49 10° NW
ATLAS 3B R/B 3.0 13:19:52 10° WSW 13:25:55 40° NW 13:32:17 10° NNE
NOAA 11 4.4 13:21:05 10° N 13:26:21 48° WNW 13:31:36 10° SW
ATLAS 5 CENTAUR R/B 3.0 13:27:14 13° WNW 13:28:49 15° NW 13:31:19 10° N
CZ-4C R/B 3.8 13:26:13 10° SSW 13:28:54 26° W 13:31:35 10° NW
Cosmos 1666 3.7 13:25:39 10° S 13:29:18 50° E 13:32:58 10° NNE
DMSP B5D2-2 4.1 13:24:44 10° S 13:29:54 65° WSW 13:35:05 10° NNW
EO 1 Delta rocket 4.3 13:28:15 10° N 13:34:03 81° E 13:38:51 10° S
Cosmos 1697 Rocket 4.1 13:29:41 10° S 13:34:57 43° ESE 13:40:14 10° NE
Meteor 1-19 Rocket 4.2 13:31:59 10° N 13:37:33 89° W 13:42:57 10° S
Cosmos 1340 Rocket 4.1 13:34:42 10° WSW 13:37:42 21° WNW 13:40:45 10° NNW
Cosmos 1937 Rocket 4.4 13:35:05 10° S 13:40:09 56° ESE 13:45:19 10° NNE
Cosmos 990 Rocket 4.0 13:35:14 10° SSW 13:40:28 73° WNW 13:45:44 10° NNE
Cosmos 2026 Rocket 4.1 13:35:06 10° SSW 13:41:21 62° W 13:47:34 10° N
Alouette 2 Rocket 3.8 13:40:08 10° NNW 13:43:25 36° W 13:47:03 10° SSW
CZ-4B R/B 3.4 13:41:31 10° N 13:44:42 31° WNW 13:47:57 10° SW
SJ 16-02 3.0 13:42:51 10° W 13:45:05 14° WNW 13:47:21 10° NNW
Cosmos 2219 4.3 13:42:06 10° N 13:47:31 44° ENE 13:52:55 10° SE
Meteor 2-21 Rocket 4.5 13:42:43 10° S 13:48:56 81° W 13:55:08 10° N
OAO 2 Rocket 3.9 13:46:23 10° WSW 13:51:29 59° S 13:56:29 10° E
Cosmos 1666 Rocket 3.6 13:47:10 10° SSW 13:51:37 76° W 13:56:07 10° N
USA 215 3.4 13:46:37 10° SE 13:53:09 81° NE 13:59:42 10° NW
BREEZE-M DEB (TANK) 4.0 13:51:01 10° W 13:58:54 29° NW 14:01:56 10° NNE
